FW1466 Weather Reports


Display with metric or nautical units.
time (UTC)temp
F
wind
direction
speed
MPH
gust
MPH
rain 1hr
in
rain 24hr
in
rain mn
in
humidity
%
barometer
mb
20260905003018 87 132 0.0 0.0 0.00 0.00 0.00 79 1011.3
20260905001518 87 133 0.0 2.0 0.00 0.00 0.00 78 1011.1
20260905000014 88 132 0.0 0.0 0.00 0.00 0.00 77 1011.4
20260904234523 89 132 0.0 2.0 0.00 0.00 0.00 76 1011.2
20260904233014 89 132 0.0 0.0 0.00 0.00 0.00 75 1011.3
20260904231514 89 132 0.0 2.0 0.00 0.00 0.00 74 1011.4
20260904230015 90 136 0.0 2.0 0.00 0.00 0.00 74 1011.6
20260904224513 90 129 1.0 3.0 0.00 0.00 0.00 73 1011.6
20260904223012 91 238 0.0 4.0 0.00 0.00 0.00 74 1011.5
20260904221511 91 153 0.0 6.0 0.00 0.00 0.00 73 1011.3
20260904220011 91 107 0.0 2.0 0.00 0.00 0.00 73 1011.6
20260904214510 90 107 0.0 4.0 0.00 0.00 0.00 73 1011.3
20260904213009 91 150 0.0 7.0 0.00 0.00 0.00 72 1011.2
20260904211508 91 153 2.0 9.0 0.00 0.00 0.00 71 1011.4
20260904210007 91 167 2.0 8.0 0.00 0.00 0.00 69 1011.2
20260904204502 92 173 2.0 6.0 0.00 0.00 0.00 69 1011.7
20260904203100 91 169 1.0 7.0 0.00 0.00 0.00 70 1011.8
20260904203001 91 171 1.0 7.0 0.00 0.00 0.00 69 1011.8
20260904201557 91 170 2.0 8.0 0.00 0.00 0.00 71 1012.0
20260904200054 90 144 3.0 6.0 0.00 0.00 0.00 70 1012.4
20260904194550 89 153 2.0 8.0 0.00 0.00 0.00 71 1012.5
20260904193052 89 110 3.0 8.0 0.00 0.00 0.00 72 1012.8
20260904191549 88 122 4.0 9.0 0.00 0.00 0.00 72 1013.0
20260904190051 88 165 5.0 9.0 0.00 0.00 0.00 71 1013.1
20260904184547 87 123 4.0 14.0 0.00 0.00 0.00 71 1013.4
20260904183046 87 180 5.0 11.0 0.00 0.00 0.00 72 1013.5
20260904181546 86 144 4.0 15.0 0.00 0.00 0.00 71 1013.8
20260904180044 86 100 3.0 12.0 0.00 0.00 0.00 71 1014.0
20260904174542 85 86 4.0 12.0 0.00 0.00 0.00 72 1014.4
20260904173041 85 80 4.0 9.0 0.00 0.00 0.00 72 1014.9
20260904171550 85 88 3.0 11.0 0.00 0.00 0.00 75 1014.9
20260904170045 86 304 2.0 9.0 0.00 0.00 0.00 76 1015.1
20260904164540 87 77 3.0 9.0 0.00 0.00 0.00 77 1014.9
20260904163041 85 92 2.0 9.0 0.00 0.00 0.00 78 1015.0
20260904161537 86 82 0.0 5.0 0.00 0.00 0.00 80 1015.0
20260904160046 88 97 0.0 10.0 0.00 0.00 0.00 74 1014.7
20260904154535 88 123 0.0 4.0 0.00 0.00 0.00 74 1014.2
20260904153127 88 22 0.0 1.0 0.00 0.00 0.00 72 1014.1
20260904151527 88 311 0.0 0.0 0.00 0.00 0.00 72 1013.9
20260904150032 86 254 0.0 0.0 0.00 0.00 0.00 77 1013.6
20260904144513 85 254 0.0 0.0 0.00 0.00 0.00 80 1013.7
20260904143011 84 225 0.0 0.0 0.00 0.00 0.00 79 1013.7
20260904141511 83 225 0.0 0.0 0.00 0.00 0.00 81 1013.5
20260904140003 82 225 0.0 0.0 0.00 0.00 0.00 83 1013.4
20260904134606 80 140 0.0 0.0 0.00 0.00 0.00 85 1013.6
20260904133102 79 140 0.0 0.0 0.00 0.00 0.00 86 1013.5
20260904131553 78 140 0.0 0.0 0.00 0.00 0.00 88 1013.5
20260904130053 76 140 0.0 0.0 0.00 0.00 0.00 92 1013.1
20260904124558 75 140 0.0 0.0 0.00 0.00 0.00 94 1012.8
20260904123046 74 140 0.0 0.0 0.00 0.00 0.00 95 1012.5
20260904121544 74 140 0.0 0.0 0.00 0.00 0.00 95 1012.3
20260904120040 74 140 0.0 0.0 0.00 0.00 0.00 94 1012.3
20260904114539 74 140 0.0 0.0 0.00 0.00 0.00 94 1012.2
20260904113038 74 140 0.0 0.0 0.00 0.00 0.00 94 1012.0
20260904111540 74 140 0.0 0.0 0.00 0.00 0.00 94 1011.8
20260904110039 74 140 0.0 0.0 0.00 0.00 0.00 96 1011.7
20260904104536 74 140 0.0 0.0 0.00 0.00 0.00 96 1011.6
20260904103041 74 140 0.0 1.0 0.00 0.00 0.00 98 1011.7
20260904101535 74 140 0.0 0.0 0.00 0.00 0.00 98 1011.7
20260904100033 74 140 0.0 0.0 0.00 0.00 0.00 97 1012.0
20260904094531 74 140 0.0 0.0 0.00 0.00 0.00 97 1012.2
20260904093031 75 140 0.0 0.0 0.00 0.00 0.00 97 1012.3
20260904091530 75 140 0.0 0.0 0.00 0.00 0.00 96 1012.4
20260904090033 75 140 0.0 0.0 0.00 0.00 0.00 96 1012.4
20260904084528 76 140 0.0 0.0 0.00 0.00 0.00 96 1012.3
20260904083026 76 140 0.0 0.0 0.00 0.00 0.00 96 1012.5
20260904081524 76 140 0.0 0.0 0.00 0.00 0.00 96 1012.3
20260904080023 76 140 0.0 0.0 0.00 0.00 0.00 95 1012.0
20260904074532 76 140 0.0 0.0 0.00 0.00 0.00 95 1011.7
20260904073024 77 140 0.0 1.0 0.00 0.00 0.00 95 1011.8
20260904071520 77 140 0.0 1.0 0.00 0.00 0.00 95 1011.7
20260904064516 77 140 0.0 0.0 0.00 0.00 0.00 95 1012.2
20260904063014 77 140 0.0 0.0 0.00 0.00 0.00 94 1012.5
20260904061520 78 140 0.0 0.0 0.00 0.00 0.00 94 1012.6
20260904060011 78 140 0.0 0.0 0.00 0.00 0.00 93 1012.7
20260904054513 78 140 0.0 0.0 0.00 0.00 0.00 93 1012.9
20260904053006 79 140 0.0 0.0 0.00 0.00 0.00 93 1012.9
20260904051502 79 140 0.0 0.0 0.00 0.00 0.00 92 1012.8
20260904050002 79 140 0.0 0.0 0.00 0.00 0.00 92 1012.5
20260904044603 80 140 0.0 0.0 0.00 0.00 0.00 92 1012.6
20260904043100 80 140 0.0 0.0 0.00 0.00 0.00 92 1012.7
20260904041601 80 140 0.0 1.0 0.00 0.00 0.00 91 1012.7
20260904040059 80 140 0.0 0.0 0.00 0.00 0.00 91 1012.6
20260904034600 80 140 0.0 0.0 0.00 0.00 0.00 91 1012.8
20260904033059 81 140 0.0 0.0 0.00 0.00 0.00 90 1012.7
20260904031600 81 140 0.0 0.0 0.00 0.00 0.00 89 1012.8
20260904030057 81 140 0.0 0.0 0.00 0.00 0.00 89 1012.9
20260904024557 81 140 0.0 0.0 0.00 0.00 0.00 89 1012.7
20260904023056 81 140 0.0 0.0 0.00 0.00 0.00 89 1012.8
20260904021556 82 140 0.0 0.0 0.00 0.00 0.00 88 1012.6
20260904020055 82 140 0.0 0.0 0.00 0.00 0.00 87 1012.5
20260904014605 83 140 0.0 0.0 0.00 0.00 0.00 86 1012.4
20260904013054 83 140 0.0 0.0 0.00 0.00 0.00 84 1012.1
20260904011554 84 140 0.0 0.0 0.00 0.00 0.00 82 1011.8
20260904010107 85 140 0.0 1.0 0.00 0.00 0.00 81 1011.5
20260904004554 86 140 0.0 2.0 0.00 0.00 0.00 80 1011.0